Date String (YYYY-MM-DD hh:mm:ss) UTC,Instrument flags,absolute air pressure of the measurement (hPa),sample flow rate (lpm),inlet stack bypass flow (lpm),air temperature of the measurement (°C),ambient temperature measured by the external sensor (°C),aerosol sample conditioner tube jacket temperature (°C),OPC LED temperature (°C),internal box temperature (°C),relative humidity of the measurement (%),span deviation,mass concentration of particles derived from Lorenz-Mie calculation of OPC scattering (μg/m³),mass concentration of particles derived from Lorenz-Mie calculation of OPC scattering (μg/m³),mass concentration of particles derived from Lorenz-Mie calculation of OPC scattering (μg/m³)
DateTimeUTC,F1_M11,P_M11,Q1_M11,Q2_M11,T1_M11,T2_M11,T3_M11,T4_M11,T5_M11,U1_M11,ZSPAN_M11,X0_M11,X2_M11,X1_M11
2024-02-02 12:00:00,SystemResetWarning,0819.3,5.00,000.00,022.4,021.7,000.0,030.7,024.1,12.1,0000.0,0010.55,0003.40,0002.94
2024-02-02 12:01:00,SystemResetWarning,0819.3,5.00,000.00,022.4,021.7,000.0,030.7,024.1,12.1,0000.0,0011.46,0003.47,0003.05
2024-02-02 12:02:00,SystemResetWarning,0819.2,5.00,000.00,022.4,021.7,000.0,030.7,024.1,12.1,0000.0,0011.45,0003.55,0003.12
2024-02-02 12:03:00,SystemResetWarning,0819.2,5.00,000.00,022.4,021.7,000.0,030.7,024.1,12.1,0000.0,0011.63,0003.59,0003.17
2024-02-02 12:04:00,SystemResetWarning,0819.2,5.00,000.00,022.4,021.7,000.0,030.7,024.1,12.2,0000.0,0012.69,0003.65,0003.21
2024-02-02 12:05:00,SystemResetWarning,0819.1,5.00,000.00,022.4,021.7,000.0,030.7,024.1,12.2,0000.0,0012.76,0003.68,0003.23
2024-02-02 12:06:00,SystemResetWarning,0819.3,5.01,000.00,022.4,021.7,000.0,030.7,024.1,12.2,0000.0,0012.90,0003.67,0003.24
2024-02-02 12:07:00,SystemResetWarning,0819.1,5.01,000.00,022.3,021.7,000.0,030.7,024.1,12.2,0000.0,0013.12,0003.68,0003.24
2024-02-02 12:08:00,SystemResetWarning,0819.2,5.00,000.00,022.3,021.7,000.0,030.7,024.1,12.2,0000.0,0013.37,0003.69,0003.24
2024-02-02 12:09:00,SystemResetWarning,0819.1,4.99,000.00,022.3,021.6,000.0,030.7,024.0,12.2,0000.0,0013.30,0003.66,0003.22
2024-02-02 12:10:00,SystemResetWarning,0819.0,5.00,000.00,022.3,021.6,000.0,030.7,024.0,12.2,0000.0,0013.58,0003.64,0003.20
2024-02-02 12:11:00,SystemResetWarning,0819.1,4.99,000.00,022.3,021.6,000.0,030.7,024.0,12.2,0000.0,0012.80,0003.66,0003.19
2024-02-02 12:12:00,SystemResetWarning,0818.9,4.99,000.00,022.3,021.6,000.0,030.7,024.0,12.2,0000.0,0011.76,0003.63,0003.16
2024-02-02 12:13:00,SystemResetWarning,0819.0,5.01,000.00,022.3,021.6,000.0,030.7,024.0,12.3,0000.0,0011.22,0003.55,0003.12
2024-02-02 12:14:00,SystemResetWarning,0819.0,5.00,000.00,022.3,021.6,000.0,030.7,024.0,12.3,0000.0,0011.18,0003.49,0003.07
2024-02-02 12:15:00,SystemResetWarning,0818.9,5.00,000.00,022.3,021.6,000.0,030.7,024.0,12.3,0000.0,0011.02,0003.46,0003.05
2024-02-02 12:16:00,SystemResetWarning,0819.1,5.00,000.00,022.3,021.6,000.0,030.7,024.0,12.3,0000.0,0010.81,0003.48,0003.07
2024-02-02 12:17:00,SystemResetWarning,0819.4,5.00,000.00,022.3,021.6,000.0,030.7,024.0,12.3,0000.0,0010.43,0003.53,0003.11
2024-02-02 12:18:00,SystemResetWarning,0819.4,5.00,000.00,022.3,021.6,000.0,030.7,024.0,12.3,0000.0,0010.48,0003.63,0003.18
2024-02-02 12:19:00,SystemResetWarning,0819.1,4.99,000.00,022.3,021.6,000.0,030.7,024.0,12.3,0000.0,0010.35,0003.72,0003.24
2024-02-02 12:20:00,SystemResetWarning,0818.8,5.00,000.00,022.3,021.6,000.0,030.7,024.0,12.2,0000.0,0011.64,0003.77,0003.27
2024-02-02 12:21:00,SystemResetWarning,0818.8,5.00,000.00,022.3,021.6,000.0,030.7,024.0,12.3,0000.0,0011.74,0003.79,0003.29
2024-02-02 12:22:00,SystemResetWarning,0818.9,5.01,000.00,022.3,021.6,000.0,030.7,024.0,12.3,0000.0,0011.63,0003.82,0003.31
2024-02-02 12:23:00,SystemResetWarning,0818.8,5.00,000.00,022.3,021.6,000.0,030.7,024.0,12.3,0000.0,0011.22,0003.86,0003.34
2024-02-02 12:24:00,SystemResetWarning,0818.8,5.00,000.00,022.3,021.6,000.0,030.6,024.0,12.3,0000.0,0011.56,0003.98,0003.39
2024-02-02 12:25:00,SystemResetWarning,0818.8,5.00,000.00,022.3,021.6,000.0,030.6,024.0,12.3,0000.0,0011.59,0004.08,0003.45
2024-02-02 12:26:00,SystemResetWarning,0818.8,4.99,000.00,022.3,021.6,000.0,030.6,024.0,12.2,0000.0,0011.72,0004.19,0003.52
2024-02-02 12:27:00,SystemResetWarning,0818.7,5.00,000.00,022.3,021.6,000.0,030.6,023.9,12.2,0000.0,0011.07,0004.24,0003.54
2024-02-02 12:28:00,SystemResetWarning,0818.8,5.00,000.00,022.3,021.6,000.0,030.6,023.9,12.2,0000.0,0011.60,0004.24,0003.54
2024-02-02 12:29:00,SystemResetWarning,0818.7,5.02,000.00,022.3,021.6,000.0,030.6,023.9,12.3,0000.0,0011.59,0004.16,0003.51
2024-02-02 12:30:00,SystemResetWarning,0818.7,5.00,000.00,022.3,021.6,000.0,030.6,023.9,12.3,0000.0,0011.19,0004.08,0003.46
2024-02-02 12:31:00,SystemResetWarning,0818.7,5.00,000.00,022.3,021.6,000.0,030.6,023.9,12.3,0000.0,0010.05,0004.02,0003.40
2024-02-02 12:32:00,SystemResetWarning,0818.7,5.00,000.00,022.2,021.6,000.0,030.6,023.9,12.3,0000.0,0009.16,0003.95,0003.35
2024-02-02 12:33:00,SystemResetWarning,0818.8,5.00,000.00,022.2,021.5,000.0,030.6,023.9,12.3,0000.0,0008.90,0003.84,0003.30
2024-02-02 12:34:00,SystemResetWarning,0818.7,5.00,000.00,022.2,021.5,000.0,030.6,023.9,12.4,0000.0,0009.16,0003.80,0003.25
2024-02-02 12:35:00,SystemResetWarning,0818.7,5.00,000.00,022.2,021.5,000.0,030.6,023.9,12.4,0000.0,0009.20,0003.69,0003.19
2024-02-02 12:36:00,SystemResetWarning,0818.7,5.00,000.00,022.2,021.5,000.0,030.6,023.9,12.4,0000.0,0008.92,0003.57,0003.09
2024-02-02 12:37:00,SystemResetWarning,0818.7,5.00,000.00,022.2,021.5,000.0,030.6,023.9,12.4,0000.0,0008.46,0003.42,0002.93
2024-02-02 12:38:00,SystemResetWarning,0818.7,5.00,000.00,022.2,021.5,000.0,030.6,023.9,12.3,0000.0,0008.16,0003.34,0002.82
2024-02-02 12:39:00,SystemResetWarning,0818.6,5.01,000.00,022.2,021.5,000.0,030.6,023.9,12.3,0000.0,0007.15,0003.30,0002.77
2024-02-02 12:40:00,SystemResetWarning,0818.6,5.00,000.00,022.2,021.5,000.0,030.6,023.9,12.3,0000.0,0006.85,0003.31,0002.77
2024-02-02 12:41:00,SystemResetWarning,0818.7,5.00,000.00,022.2,021.5,000.0,030.6,023.9,12.3,0000.0,0006.97,0003.36,0002.84
2024-02-02 12:42:00,SystemResetWarning,0818.6,4.99,000.00,022.2,021.5,000.0,030.6,023.9,12.3,0000.0,0007.44,0003.44,0002.98
2024-02-02 12:43:00,SystemResetWarning,0818.6,4.99,000.00,022.2,021.5,000.0,030.6,023.9,12.3,0000.0,0007.93,0003.53,0003.09
2024-02-02 12:44:00,SystemResetWarning,0818.7,5.00,000.00,022.2,021.5,000.0,030.5,023.8,12.3,0000.0,0008.04,0003.62,0003.16
2024-02-02 12:45:00,SystemResetWarning,0818.6,5.01,000.00,022.2,021.5,000.0,030.5,023.8,12.3,0000.0,0008.14,0003.64,0003.20
2024-02-02 12:46:00,SystemResetWarning,0818.6,5.01,000.00,022.2,021.5,000.0,030.5,023.9,12.3,0000.0,0008.48,0003.65,0003.24
2024-02-02 12:47:00,SystemResetWarning,0818.6,5.00,000.00,022.2,021.5,000.0,030.5,023.8,12.3,0000.0,0008.56,0003.71,0003.30
2024-02-02 12:48:00,SystemResetWarning,0818.6,5.00,000.00,022.2,021.5,000.0,030.5,023.8,12.4,0000.0,0008.88,0003.83,0003.37
2024-02-02 12:49:00,SystemResetWarning,0818.5,5.00,000.00,022.2,021.5,000.0,030.5,023.8,12.4,0000.0,0008.97,0003.93,0003.43
2024-02-02 12:50:00,SystemResetWarning,0818.6,4.99,000.00,022.2,021.5,000.0,030.5,023.8,12.4,0000.0,0009.58,0004.04,0003.49
2024-02-02 12:51:00,SystemResetWarning,0818.5,4.99,000.00,022.2,021.5,000.0,030.5,023.8,12.4,0000.0,0009.90,0004.09,0003.52
2024-02-02 12:52:00,SystemResetWarning,0818.5,5.00,000.00,022.2,021.5,000.0,030.5,023.8,12.4,0000.0,0010.03,0004.11,0003.53
2024-02-02 12:53:00,SystemResetWarning,0818.5,5.00,000.00,022.1,021.5,000.0,030.5,023.8,12.4,0000.0,0009.85,0004.13,0003.55
2024-02-02 12:54:00,SystemResetWarning,0818.5,5.00,000.00,022.1,021.5,000.0,030.5,023.8,12.4,0000.0,0009.39,0004.11,0003.56
2024-02-02 12:55:00,SystemResetWarning,0818.5,5.01,000.00,022.1,021.4,000.0,030.5,023.8,12.4,0000.0,0009.48,0004.14,0003.59
2024-02-02 12:56:00,SystemResetWarning,0818.4,5.00,000.00,022.1,021.4,000.0,030.5,023.8,12.4,0000.0,0009.50,0004.24,0003.65
2024-02-02 12:57:00,SystemResetWarning,0818.4,5.01,000.00,022.1,021.4,000.0,030.5,023.8,12.4,0000.0,0009.82,0004.39,0003.74
2024-02-02 12:58:00,SystemResetWarning,0818.4,5.01,000.00,022.1,021.4,000.0,030.5,023.8,12.4,0000.0,0010.16,0004.48,0003.81
2024-02-02 12:59:00,SystemResetWarning,0818.4,5.01,000.00,022.1,021.4,000.0,030.5,023.8,12.4,0000.0,0010.60,0004.51,0003.85
